Temp
-4 -4 -4 -4 -4 -4 -5 -5 -5 -5 -5 -4 -4 -4 -4 -4 -4 -5 -6 -6 -5 -6 -5 -5 -5 -5 -5 -6 -6 -6 -5 -5 -6 -6 -6 -4 -4 -3 -3 -3 -3 -3 -3 -3 -3
-4 -4 -4 -4 -5 -4 -5 -5 -5 -5 -5 -5 -5 -5 -5 -4 -5 -5 -6 -6 -5 -5 -6 -4 -5 -5 -5 -5 -5 -6 -5 -6 -6 -5 -5 -5 -3 -4 -3 -3 -3 -3 -3 -3 -3
-5 -4 -5 -5 -5 -5 -5 -6 -6 -6 -5 -5 -5 -5 -5 -5 -5 -5 -6 -6 -6 -5 -6 -5 -5 -5 -6 -6 -5 -5 -5 -6 -5 -5 -5 -5 -4 -3 -2 -2 -2 -2 -2 -2 -2
-5 -5 -5 -5 -5 -5 -6 -6 -6 -5 -5 -5 -5 -6 -6 -6 -5 -6 -6 -5 -5 -5 -6 -5 -5 -4 -5 -7 -6 -5 -6 -5 -6 -5 -6 -5 -4 -3 -3 -3 -3 -3 -3 -2 -2
-5 -5 -5 -5 -5 -5 -6 -6 -6 -5 -5 -6 -6 -6 -6 -6 -6 -5 -6 -6 -5 -6 -6 -5 -5 -5 -6 -5 -5 -5 -5 -5 -6 -6 -5 -5 -3 -3 -3 -3 -3 -2 -2 -2 -2
-5 -5 -5 -6 -6 -6 -6 -6 -6 -6 -6 -6 -6 -6 -6 -6 -6 -6 -6 -6 -5 -6 -5 -5 -5 -5 -5 -6 -5 -6 -5 -5 -5 -5 -6 -6 -5 -4 -3 -2 -2 -2 -2 -2 -2
-6 -6 -5 -6 -6 -6 -6 -6 -6 -5 -5 -6 -6 -6 -6 -6 -6 -6 -6 -6 -5 -6 -6 -5 -5 -5 -5 -5 -6 -5 -4 -5 -5 -6 -6 -5 -4 -4 -3 -2 -2 -2 -2 -2 -2
-6 -6 -6 -6 -6 -6 -6 -6 -6 -5 -5 -6 -6 -6 -7 -6 -6 -6 -5 -6 -6 -5 -5 -5 -6 -6 -5 -6 -6 -4 -4 -5 -5 -6 -5 -4 -3 -3 -4 -2 -3 -2 -2 -2 -2
-5 -5 -5 -6 -6 -6 -6 -6 -5 -5 -5 -6 -6 -6 -7 -6 -6 -6 -6 -6 -6 -5 -6 -5 -6 -5 -5 -5 -5 -5 -5 -5 -5 -4 -3 -4 -3 -3 -4 -3 -3 -3 -3 -2 -2
-5 -5 -5 -5 -6 -6 -6 -6 -5 -5 -5 -5 -6 -6 -6 -6 -5 -6 -5 -6 -6 -5 -6 -6 -6 -6 -4 -4 -5 -4 -5 -4 -5 -5 -5 -4 -5 -3 -4 -3 -3 -3 -3 -3 -3
-5 -5 -5 -5 -6 -6 -6 -5 -5 -5 -5 -6 -6 -6 -6 -6 -5 -5 -5 -6 -6 -5 -5 -6 -5 -5 -5 -5 -6 -6 -4 -4 -5 -5 -4 -4 -4 -4 -5 -4 -4 -4 -3 -2 -2
-5 -5 -5 -5 -5 -5 -5 -5 -4 -4 -5 -5 -5 -6 -6 -6 -5 -5 -4 -5 -5 -5 -6 -5 -4 -4 -4 -5 -5 -5 -4 -4 -5 -4 -4 -4 -4 -3 -4 -3 -3 -4 -4 -3 -2
-5 -5 -5 -5 -5 -5 -5 -5 -5 -4 -4 -4 -5 -6 -6 -5 -5 -5 -4 -5 -5 -5 -5 -5 -6 -5 -4 -5 -4 -3 -3 -4 -5 -4 -4 -4 -3 -2 -2 -2 -3 -3 -3 -3 -2
-5 -5 -5 -5 -5 -5 -5 -5 -5 -4 -5 -6 -5 -6 -5 -5 -5 -5 -5 -4 -5 -5 -5 -5 -6 -5 -5 -5 -5 -5 -5 -5 -5 -5 -5 -5 -4 -4 -4 -3 -3 -3 -3 -3 -3
-5 -5 -5 -5 -5 -5 -5 -5 -5 -5 -5 -6 -5 -6 -5 -5 -7 -5 -5 -4 -5 -5 -5 -5 -5 -5 -5 -5 -4 -5 -6 -5 -5 -5 -4 -5 -5 -5 -5 -4 -3 -3 -3 -3 -3
-5 -5 -5 -5 -5 -5 -5 -5 -5 -5 -6 -6 -6 -6 -5 -5 -5 -6 -5 -5 -5 -6 -5 -6 -6 -5 -5 -6 -5 -5 -5 -5 -5 -5 -4 -5 -3 -4 -5 -4 -4 -4 -3 -4 -3
-6 -6 -6 -6 -5 -5 -5 -5 -5 -5 -6 -6 -7 -7 -6 -6 -6 -6 -5 -5 -5 -5 -5 -5 -5 -5 -6 -6 -5 -5 -5 -6 -5 -5 -5 -5 -5 -4 -6 -5 -5 -4 -4 -4 -4
-6 -6 -6 -6 -5 -5 -5 -5 -5 -6 -7 -7 -6 -6 -7 -6 -6 -6 -6 -5 -5 -5 -6 -5 -5 -5 -6 -6 -5 -5 -5 -5 -5 -5 -5 -6 -5 -5 -5 -5 -5 -5 -5 -4 -4
-6 -7 -6 -6 -6 -6 -5 -4 -6 -7 -7 -6 -6 -6 -7 -7 -7 -7 -6 -6 -5 -5 -5 -5 -5 -6 -6 -5 -6 -6 -5 -5 -5 -4 -4 -5 -5 -4 -4 -5 -5 -5 -5 -5 -5
-7 -7 -7 -6 -7 -6 -5 -5 -7 -8 -7 -8 -7 -7 -8 -8 -7 -8 -7 -6 -6 -5 -6 -6 -5 -6 -6 -5 -5 -6 -6 -6 -6 -5 -5 -5 -5 -5 -5 -5 -6 -5 -6 -5 -5
-7 -7 -7 -7 -7 -7 -6 -5 -7 -8 -8 -8 -8 -6 -7 -8 -8 -8 -7 -7 -7 -7 -6 -6 -6 -6 -6 -6 -6 -6 -5 -5 -6 -6 -5 -4 -5 -5 -5 -6 -4 -4 -4 -4 -5
-8 -8 -8 -7 -7 -7 -7 -7 -8 -8 -8 -8 -8 -8 -8 -8 -8 -8 -7 -7 -8 -7 -6 -6 -7 -7 -7 -7 -7 -6 -5 -6 -6 -6 -5 -4 -4 -5 -5 -5 -4 -3 -5 -5 -4
-8 -9 -9 -8 -8 -8 -8 -8 -8 -8 -8 -8 -8 -8 -7 -8 -8 -8 -7 -7 -8 -8 -7 -7 -7 -7 -7 -7 -6 -5 -5 -5 -6 -6 -5 -5 -4 -6 -5 -6 -5 -5 -4 -3 -3
-9 -9 -9 -9 -8 -8 -8 -8 -8 -8 -9 -8 -8 -8 -8 -7 -8 -8 -8 -8 -8 -8 -8 -8 -7 -7 -6 -6 -6 -6 -6 -5 -5 -5 -6 -6 -6 -5 -5 -6 -6 -6 -5 -3 -4
-10 -9 -9 -10 -9 -9 -8 -8 -8 -9 -8 -9 -9 -8 -8 -8 -8 -8 -8 -8 -8 -8 -8 -8 -8 -7 -7 -6 -7 -6 -6 -5 -5 -6 -7 -7 -7 -6 -6 -6 -6 -6 -6 -6 -6
-11 -10 -10 -10 -10 -10 -10 -9 -8 -9 -8 -9 -9 -9 -8 -8 -8 -8 -8 -8 -7 -7 -8 -8 -7 -7 -6 -6 -7 -6 -6 -5 -4 -6 -7 -7 -5 -5 -6 -5 -5 -6 -5 -5 -6
-11 -11 -11 -11 -10 -10 -10 -10 -10 -9 -9 -9 -9 -8 -8 -7 -8 -8 -8 -7 -8 -7 -8 -8 -8 -8 -8 -8 -8 -7 -7 -6 -7 -7 -7 -6 -6 -6 -5 -5 -4 -6 -5 -6 -6
Height
5894 5894 5894 5895 5895 5895 5894 5895 5897 5898 5899 5901 5903 5904 5906 5908 5911 5913 5914 5916 5919 5921 5921 5920 5917 5921 5922 5924 5924 5926 5928 5928 5928 5928 5931 5932 5931 5933 5932 5931 5933 5933 5935 5936 5934
5891 5891 5892 5892 5892 5892 5891 5891 5893 5895 5897 5899 5900 5902 5903 5905 5909 5910 5912 5914 5918 5921 5919 5915 5917 5920 5920 5924 5926 5928 5928 5930 5928 5931 5930 5934 5934 5934 5934 5934 5934 5934 5935 5937 5936
5888 5888 5889 5889 5889 5889 5889 5889 5890 5892 5894 5896 5897 5899 5900 5902 5905 5906 5908 5912 5917 5919 5917 5915 5917 5920 5919 5919 5926 5927 5927 5927 5928 5929 5931 5934 5938 5937 5937 5934 5936 5937 5937 5938 5939
5885 5885 5886 5886 5886 5886 5886 5887 5888 5889 5890 5892 5894 5896 5897 5899 5903 5904 5907 5912 5915 5917 5916 5916 5917 5916 5916 5918 5928 5927 5925 5928 5929 5926 5926 5928 5939 5940 5938 5937 5938 5938 5939 5940 5941
5882 5882 5882 5883 5883 5883 5883 5883 5884 5886 5887 5889 5891 5892 5894 5896 5897 5901 5904 5909 5914 5916 5913 5918 5919 5920 5921 5920 5926 5924 5923 5926 5927 5926 5927 5926 5938 5941 5941 5940 5940 5940 5941 5943 5943
5878 5878 5879 5879 5879 5880 5880 5881 5881 5882 5884 5885 5887 5889 5891 5893 5894 5897 5902 5907 5912 5914 5913 5915 5921 5923 5918 5925 5927 5927 5925 5919 5923 5927 5927 5934 5938 5940 5942 5942 5942 5943 5944 5945 5946
5874 5875 5875 5875 5876 5876 5877 5878 5878 5879 5881 5882 5884 5886 5888 5888 5891 5895 5899 5906 5911 5912 5913 5916 5920 5920 5917 5919 5924 5926 5927 5928 5928 5930 5932 5939 5941 5941 5945 5944 5945 5946 5946 5947 5948
5871 5871 5872 5872 5872 5873 5874 5874 5875 5876 5877 5878 5880 5883 5885 5885 5888 5894 5898 5903 5909 5911 5912 5917 5918 5918 5914 5904 5923 5919 5926 5929 5932 5933 5936 5941 5942 5941 5945 5945 5946 5948 5949 5950 5950
5867 5867 5868 5868 5868 5869 5870 5871 5872 5873 5873 5875 5877 5880 5880 5884 5887 5889 5895 5900 5906 5910 5912 5913 5916 5917 5915 5920 5922 5926 5921 5930 5931 5934 5937 5939 5942 5943 5944 5946 5948 5949 5950 5952 5953
5862 5862 5863 5863 5864 5865 5866 5867 5868 5869 5870 5872 5875 5878 5879 5880 5881 5885 5892 5896 5903 5907 5911 5912 5913 5914 5916 5918 5921 5924 5929 5930 5933 5937 5937 5941 5943 5943 5943 5945 5947 5949 5951 5952 5953
5858 5858 5858 5859 5860 5861 5863 5863 5865 5867 5867 5869 5872 5874 5876 5877 5880 5883 5887 5893 5899 5903 5908 5908 5911 5915 5918 5921 5923 5928 5929 5935 5935 5937 5938 5938 5941 5940 5944 5946 5947 5948 5950 5952 5952
5854 5854 5855 5855 5856 5857 5858 5858 5858 5862 5863 5864 5866 5869 5872 5874 5878 5882 5886 5889 5895 5901 5903 5907 5909 5913 5917 5920 5924 5927 5931 5935 5936 5936 5936 5937 5938 5939 5941 5943 5946 5948 5950 5951 5951
5848 5849 5850 5851 5851 5852 5853 5854 5855 5859 5863 5862 5864 5867 5867 5871 5874 5878 5884 5888 5893 5897 5901 5904 5909 5911 5916 5918 5922 5925 5929 5933 5935 5935 5937 5939 5940 5941 5940 5941 5944 5947 5950 5952 5951
5840 5842 5845 5846 5848 5847 5848 5850 5851 5854 5858 5859 5862 5863 5865 5868 5872 5874 5879 5885 5888 5894 5898 5901 5903 5906 5911 5917 5920 5923 5926 5928 5931 5935 5936 5936 5938 5937 5937 5939 5942 5945 5949 5952 5951
5831 5834 5837 5839 5841 5842 5844 5845 5847 5851 5853 5855 5858 5858 5860 5867 5866 5870 5875 5879 5885 5890 5894 5898 5901 5905 5909 5912 5916 5921 5923 5926 5927 5929 5929 5930 5930 5933 5934 5937 5939 5943 5948 5949 5950
5822 5825 5829 5831 5833 5838 5838 5840 5843 5846 5847 5851 5853 5856 5858 5861 5864 5865 5869 5874 5880 5884 5888 5892 5895 5900 5903 5908 5910 5914 5915 5921 5925 5924 5924 5923 5928 5928 5927 5933 5935 5938 5944 5946 5946
5813 5816 5819 5822 5824 5829 5832 5836 5839 5840 5844 5849 5848 5851 5853 5857 5860 5861 5865 5867 5874 5878 5882 5889 5894 5898 5902 5901 5907 5909 5915 5914 5919 5921 5923 5922 5923 5923 5925 5931 5931 5934 5938 5940 5940
5805 5808 5811 5812 5817 5820 5824 5830 5835 5836 5837 5837 5839 5842 5850 5853 5856 5858 5861 5865 5867 5873 5880 5884 5889 5895 5895 5902 5905 5909 5911 5911 5912 5915 5920 5920 5920 5920 5922 5927 5930 5931 5934 5935 5935
5797 5800 5801 5801 5808 5811 5816 5822 5830 5830 5831 5834 5837 5841 5844 5850 5853 5855 5858 5861 5865 5868 5873 5880 5888 5891 5893 5897 5896 5902 5906 5909 5911 5914 5914 5917 5919 5918 5918 5922 5924 5927 5931 5934 5938
5789 5791 5790 5796 5800 5803 5808 5816 5823 5825 5827 5830 5832 5833 5834 5843 5848 5851 5853 5857 5859 5863 5869 5876 5881 5884 5885 5891 5894 5896 5900 5902 5903 5906 5909 5911 5916 5915 5917 5915 5917 5919 5925 5930 5931
5780 5781 5785 5787 5790 5793 5800 5811 5817 5819 5821 5824 5826 5829 5831 5833 5838 5840 5847 5854 5855 5860 5863 5868 5874 5879 5879 5882 5886 5889 5891 5894 5897 5899 5902 5905 5910 5912 5910 5909 5908 5918 5922 5925 5923
5771 5774 5775 5778 5781 5785 5792 5802 5806 5809 5811 5816 5821 5825 5827 5828 5833 5837 5841 5845 5853 5857 5858 5861 5867 5871 5873 5875 5880 5884 5887 5887 5886 5893 5897 5901 5905 5903 5905 5911 5913 5915 5914 5917 5917
5762 5767 5766 5768 5771 5775 5780 5788 5794 5799 5803 5809 5815 5819 5821 5822 5827 5832 5836 5841 5843 5846 5853 5857 5859 5863 5866 5870 5873 5876 5880 5881 5879 5882 5883 5891 5898 5899 5903 5902 5906 5904 5905 5909 5911
5755 5757 5762 5763 5763 5766 5771 5778 5783 5787 5791 5796 5806 5810 5815 5818 5821 5827 5832 5835 5837 5841 5846 5852 5854 5856 5859 5867 5869 5869 5872 5873 5871 5872 5875 5882 5887 5892 5894 5897 5899 5896 5898 5903 5903
5749 5748 5752 5758 5757 5760 5764 5771 5776 5782 5787 5788 5792 5798 5806 5812 5814 5821 5827 5830 5832 5834 5839 5843 5845 5848 5851 5857 5859 5863 5864 5864 5862 5866 5866 5873 5875 5879 5884 5886 5886 5889 5889 5890 5896
5744 5742 5744 5747 5748 5752 5753 5758 5764 5767 5774 5781 5784 5788 5794 5802 5808 5813 5820 5823 5824 5829 5831 5833 5835 5840 5842 5849 5849 5856 5857 5856 5857 5858 5854 5855 5863 5870 5874 5877 5878 5880 5879 5877 5878
5737 5736 5737 5740 5742 5745 5746 5751 5757 5762 5765 5771 5773 5779 5783 5792 5800 5805 5811 5816 5819 5823 5826 5829 5831 5832 5834 5841 5845 5848 5854 5855 5857 5857 5857 5856 5860 5864 5866 5870 5871 5875 5879 5880 5878
Wind_Speed
13 12 12 12 12 14 17 19 20 19 19 16 13 13 16 21 23 22 22 19 20 16 13 16 15 12 16 20 9 24 17 16 17 14 5 9 11 15 14 12 12 13 14 16 17
12 12 12 12 13 14 16 19 20 20 19 17 14 12 16 22 25 25 24 21 19 18 17 17 15 12 19 20 18 12 19 18 15 16 15 6 10 12 11 12 13 13 14 16 16
13 13 13 13 13 14 15 16 17 18 18 17 15 13 15 20 27 29 27 24 20 19 18 14 15 15 13 21 30 23 21 16 18 17 14 8 8 6 14 17 17 16 17 17 18
15 14 15 14 13 14 15 16 17 18 19 18 16 14 14 17 27 29 27 24 21 20 17 15 11 3 11 28 26 29 23 19 19 17 13 12 13 8 12 15 15 17 17 18 19
17 16 15 16 15 13 14 15 16 17 19 18 15 13 14 15 27 30 28 25 22 21 20 15 11 6 18 30 31 28 20 25 16 13 15 15 10 12 13 14 16 19 20 22 24
16 15 15 17 16 13 13 14 15 15 17 17 16 15 12 15 26 31 27 26 23 21 19 16 9 8 28 29 30 25 14 18 18 15 18 8 13 19 10 17 24 26 26 24 22
16 15 15 16 18 16 15 15 15 16 16 18 17 13 10 16 23 30 28 26 24 23 21 16 8 8 8 32 34 27 26 22 19 14 11 15 16 20 15 19 19 20 21 20 19
18 17 17 16 17 18 17 16 16 16 17 16 15 11 10 15 21 28 28 27 26 24 21 17 15 7 25 18 38 11 25 21 23 12 18 18 18 21 15 16 16 16 14 17 16
19 19 18 17 17 18 18 18 17 17 17 17 14 12 16 10 18 30 29 27 26 25 21 19 12 12 19 11 14 29 30 25 22 21 20 18 10 18 16 17 16 15 17 14 13
17 18 18 17 18 19 18 18 18 17 16 16 14 15 15 17 24 30 30 27 25 26 23 20 16 18 16 15 7 7 13 17 15 20 17 9 10 14 20 19 17 14 13 13 8
15 15 16 17 18 20 19 19 20 18 12 13 13 17 15 15 21 34 34 28 26 26 23 24 22 22 20 19 14 10 19 17 21 19 21 16 16 23 21 18 12 10 8 10 10
18 16 15 16 18 21 22 22 22 17 13 13 14 16 15 16 18 27 35 32 27 23 25 23 21 24 24 29 18 15 25 21 20 19 18 15 12 18 27 16 12 6 3 7 8
23 20 18 15 16 21 24 24 20 18 11 13 12 15 18 16 19 21 33 32 26 26 25 22 21 26 24 23 18 14 23 24 19 19 16 14 13 4 14 15 8 9 6 1 4
28 25 23 20 18 19 22 22 22 16 10 17 13 14 15 15 16 21 30 33 30 26 25 25 27 29 29 23 14 24 27 31 22 19 20 14 8 1 10 4 4 6 7 6 6
32 30 26 25 23 21 18 18 20 18 15 19 14 19 17 13 18 22 27 36 31 28 29 27 26 26 26 24 21 40 21 31 23 20 21 18 17 13 14 15 6 2 6 8 7
31 31 30 29 28 24 22 17 16 17 16 16 14 15 17 17 18 22 28 34 34 32 33 31 31 28 26 21 25 35 34 29 27 24 18 20 15 13 14 21 17 14 2 16 12
27 29 31 30 33 28 26 21 17 13 17 14 15 13 17 18 20 21 27 34 36 38 35 32 29 23 29 24 24 35 19 27 33 28 16 21 14 19 24 25 30 20 14 10 13
26 26 29 34 32 32 30 25 17 17 20 24 27 25 17 18 20 21 23 30 37 37 33 34 32 25 28 27 22 23 20 5 38 25 20 19 17 23 29 27 29 27 26 10 13
24 25 28 36 32 33 34 29 18 23 26 24 21 19 16 11 19 21 21 21 30 37 37 31 27 24 24 33 24 21 20 21 24 29 27 27 28 24 28 28 35 31 31 21 20
24 24 32 29 32 35 34 31 26 33 31 29 21 22 19 12 10 8 21 20 20 34 33 30 30 28 28 39 27 23 21 29 31 30 28 31 28 27 29 39 41 42 37 32 31
24 25 26 28 31 37 35 26 30 42 41 34 28 27 27 24 24 22 18 9 17 23 35 31 31 31 30 28 30 27 26 30 36 33 31 34 27 20 13 38 42 34 28 17 24
24 23 25 27 31 33 33 28 37 49 49 44 38 34 33 30 28 26 25 16 9 16 32 32 34 35 35 33 32 28 26 29 35 35 34 34 30 17 5 8 13 26 23 24 19
26 21 26 26 27 30 34 34 40 54 51 48 43 40 39 37 33 28 27 20 22 24 15 20 31 38 40 39 37 30 28 32 39 41 35 35 32 13 14 19 14 22 30 35 27
25 24 23 25 30 32 33 36 40 52 57 52 47 47 43 41 41 31 27 27 26 25 24 22 26 32 38 34 34 35 37 34 42 41 32 30 23 31 29 24 17 26 33 40 18
22 23 20 19 24 24 29 32 38 42 52 56 52 51 45 46 46 42 33 33 30 30 18 31 36 35 34 33 33 24 22 30 34 43 28 26 25 32 28 35 25 26 32 23 19
18 23 23 22 26 22 24 33 37 44 47 53 55 53 50 44 51 47 39 42 39 36 32 40 35 43 27 26 22 21 22 22 20 22 12 29 24 19 29 33 31 27 34 38 33
17 21 23 23 26 27 29 28 33 41 44 48 54 53 51 44 54 50 48 46 44 43 42 39 24 22 29 25 28 30 26 14 11 11 22 20 19 21 22 34 31 32 27 33 52
Wind_Direction
274 269 270 267 270 270 262 254 244 243 230 222 226 229 221 213 209 203 201 198 199 197 197 202 209 179 181 163 195 144 128 103 89 86 62 77 70 81 101 106 114 110 111 115 112
269 265 259 263 270 273 264 255 247 239 226 226 234 238 230 215 208 204 204 202 197 200 209 222 227 216 199 183 177 169 129 112 94 95 105 64 73 71 87 101 109 109 109 110 111
267 261 261 264 267 270 264 255 245 235 229 231 240 242 238 219 208 207 203 199 196 200 211 231 241 247 227 195 175 155 135 132 110 96 77 65 73 113 110 96 93 96 95 98 106
269 264 262 264 264 268 257 249 243 238 233 234 240 242 240 221 209 207 207 199 195 199 208 224 254 150 162 149 163 130 142 135 126 121 99 78 124 127 106 96 95 95 97 102 101
269 263 262 260 260 263 255 247 244 240 238 235 241 240 241 220 209 207 204 197 192 198 210 206 221 218 146 136 153 148 152 155 121 107 96 67 109 120 119 118 115 109 105 101 97
267 265 262 257 252 255 257 250 246 244 240 238 246 242 240 222 205 205 204 197 191 194 210 215 216 157 153 148 146 126 154 141 122 111 82 73 91 87 109 123 114 110 106 102 99
263 261 259 256 248 250 255 252 247 246 246 247 245 237 238 232 204 204 202 203 190 195 203 207 201 243 233 159 145 154 140 135 138 141 127 120 119 105 115 113 110 112 111 109 106
263 261 257 254 251 243 250 248 245 248 247 244 241 231 225 222 201 201 207 201 198 193 204 199 209 154 176 80 162 183 140 143 146 143 137 125 126 116 112 114 110 108 105 112 100
266 262 257 254 249 239 245 247 243 249 249 244 238 215 228 206 192 201 205 205 200 196 199 202 204 187 187 165 147 184 153 151 153 159 139 111 123 133 126 120 120 116 118 116 97
260 259 256 251 247 237 241 244 244 250 256 250 232 220 228 210 198 196 203 207 203 202 196 203 215 207 184 165 159 196 168 145 184 185 185 146 116 154 133 127 118 112 131 130 115
265 261 256 248 246 236 239 242 243 251 259 250 236 233 229 216 205 205 200 202 205 206 199 206 209 206 192 181 191 208 182 164 144 170 169 168 158 161 150 122 115 104 116 135 120
261 261 260 248 241 239 240 240 241 243 238 241 221 221 228 220 202 211 210 203 203 202 208 209 210 210 194 191 199 182 181 181 159 160 179 163 150 141 163 141 103 117 166 135 106
258 255 255 254 245 242 243 246 251 255 252 257 230 218 224 210 202 211 215 209 202 203 207 213 204 203 197 191 212 227 193 167 171 164 163 173 174 126 149 148 93 100 173 180 62
249 252 250 249 248 246 246 248 248 247 238 238 218 209 231 213 210 208 215 208 204 204 205 206 200 189 202 191 194 180 181 187 192 183 175 178 168 236 330 11 109 84 65 105 52
250 245 244 246 247 246 243 248 250 245 230 230 226 216 231 205 207 209 222 209 203 204 207 205 199 199 195 204 187 172 175 177 187 182 180 176 205 184 210 274 304 285 68 33 25
251 246 240 239 242 243 242 243 244 233 223 217 220 215 233 214 215 204 203 209 200 202 206 209 207 202 206 202 191 198 198 186 186 194 206 216 209 198 222 264 264 276 150 348 349
255 247 241 236 235 237 240 238 239 231 215 196 187 190 216 211 217 214 211 203 205 205 208 214 217 215 201 220 207 208 230 180 182 195 207 238 247 232 218 238 255 260 274 326 352
255 250 243 236 232 230 233 233 226 216 193 202 204 198 181 215 216 220 221 216 202 209 211 215 215 222 225 215 224 221 242 270 184 198 215 226 239 241 247 247 247 237 255 299 336
257 244 243 238 231 230 228 229 200 191 203 211 208 180 172 185 208 228 230 222 220 205 212 213 212 222 212 202 211 232 238 220 208 210 214 216 232 244 238 224 229 221 238 252 269
259 246 239 242 233 230 228 221 194 191 195 198 193 177 182 198 197 223 240 221 219 212 205 212 218 215 211 214 217 226 243 237 229 223 228 224 225 242 224 216 224 219 221 233 245
259 248 243 236 233 229 226 217 191 187 196 191 199 209 198 195 205 213 183 204 240 211 204 202 215 212 211 215 224 229 233 238 242 225 236 238 242 298 308 224 230 229 225 236 239
259 247 242 238 233 231 222 212 192 190 204 200 197 205 196 196 212 217 195 150 212 227 209 197 213 207 214 221 228 235 233 237 242 239 232 237 243 276 320 272 235 259 237 227 254
262 246 238 234 231 229 218 208 200 198 206 207 199 209 205 203 201 217 208 193 197 203 205 184 210 216 218 225 230 238 243 246 251 237 230 228 226 220 227 208 250 272 207 244 258
263 257 244 243 241 234 223 212 204 201 206 212 205 212 213 209 204 202 214 205 223 217 205 228 221 221 228 234 240 247 251 252 263 254 223 224 216 223 229 209 234 241 246 253 275
260 264 252 234 243 244 240 223 212 206 208 216 214 213 219 218 206 202 204 205 208 220 210 236 233 226 226 231 245 253 255 257 281 238 203 200 227 205 203 214 231 252 264 275 273
264 260 257 242 236 231 233 228 218 207 209 215 219 221 218 221 210 206 203 204 210 214 207 216 228 225 227 227 229 242 256 276 268 234 246 235 227 235 223 238 229 244 246 223 254
273 265 260 252 244 236 232 226 224 217 209 208 223 225 225 211 215 212 204 206 213 217 221 227 219 239 221 230 231 240 244 216 193 253 238 236 247 263 244 231 250 230 253 280 278